[[{"header":{"parameterUnit":"m.s-1","parameterCategory":2,"la1":30.2991,"la2":30.254,"lo1":-89.0895,"lo2":-89.0444,"dy":0.0017,"dx":0.0017,"nx":28,"ny":28,"refTime":"2026-01-31T03:00:00:Z","depth":"0","parameterNumber":2,"parameterNumberName":"U-component_of_CURRENTS"},"data":[0,0,0,0,0,0,0,0,0,0,0,0,0,0,0,0,0,0,0,0,0,0,0,0,0,0,0,0,0,0,0,0,0,0,0,0,0,0,0,0,0,0,0,0,0,0,0,0,0,0,0,0,0,0,0,0,0,0,0.2867,0.2868,0,0.2897,0.2897,0.2897,0.2887,0.2887,0.2887,0.2886,0.2868,0.2868,0.2868,0,0,0,0,0,0,0,0,0,0,0,0,0,0.2803,0.2804,0.2867,0.2868,0.2869,0.2897,0.2897,0.2897,0.2887,0.2887,0.2887,0.2886,0.2869,0.2868,0.2868,0,0,0,0,0,0,0,0,0,0,0,0,0,0.2828,0.2804,0.2867,0.287,0.2871,0.2897,0.2897,0.2897,0.2887,0.2887,0.2887,0.2886,0.2869,0.2868,0.2868,0.2875,0,0,0.2867,0.2867,0,0,0,0,0,0,0,0,0.2826,0.283,0.2869,0.287,0.2871,0.2891,0.2868,0.2889,0.2888,0.2877,0.2886,0.2886,0.2874,0.2874,0.2876,0.2874,0.2874,0.2867,0.2867,0.2867,0.2867,0,0,0,0,0,0,0,0.2825,0.2829,0.2875,0.287,0.2871,0.287,0.2873,0.2871,0.2874,0.2878,0.2878,0.2888,0.2874,0.2876,0.2875,0.2873,0.2867,0.2867,0.2867,0.2867,0.2906,0.2907,0,0,0,0,0,0,0.2829,0.2827,0.2874,0.2877,0.2851,0.2872,0.2875,0.2882,0.2875,0.2875,0.2888,0.2887,0.2877,0.2875,0.2874,0.2905,0.2867,0.2866,0.2866,0.2904,0.2906,0.2907,0,0,0,0,0,0,0.2828,0.2833,0.2873,0.2855,0.2861,0.2874,0.2882,0.2883,0.2889,0.2884,0.2882,0.2894,0.2876,0.2875,0.2884,0.2903,0.2866,0.2866,0.2903,0.2905,0.2907,0.2951,0,0,0,0,0,0,0.2825,0.2832,0.2838,0.2856,0.2862,0.2896,0.2883,0.2884,0.2897,0.2896,0.2889,0.2886,0.2876,0.2885,0.2884,0.2902,0.2866,0.2901,0.2904,0.2906,0.2948,0.2954,0.2959,0,0,0,0,0,0.2823,0.2833,0.2837,0.2843,0.287,0.2898,0.2901,0.2906,0.2898,0.2907,0.2903,0.2887,0.2899,0.2885,0.2884,0.2902,0.29,0.2903,0.2906,0.2945,0.2953,0.2959,0,0,0,0,0,0,0.2805,0.2834,0.2839,0.2857,0.288,0.2897,0.2908,0.2911,0.2915,0.2912,0.29,0.2898,0.2915,0.2905,0.2891,0.2922,0.2898,0.2901,0.2928,0.2935,0.2941,0.2951,0.2866,0,0,0,0,0,0.2806,0.2822,0.285,0.2865,0.2878,0.2894,0.2905,0.2911,0.292,0.2921,0.2916,0.2916,0.2926,0.2926,0.293,0.2944,0.2954,0.2956,0.2962,0.2967,0.2976,0.301,0.302,0.2916,0.2916,0.2916,0,0,0.2802,0.2822,0.283,0.2863,0.2879,0.2903,0.2898,0.2921,0.2939,0.2919,0.2933,0.2934,0.2935,0.2954,0.296,0.2947,0.3005,0.297,0.2974,0.2981,0.3014,0.3024,0.3033,0.2918,0.2918,0.2917,0,0,0.2807,0.2824,0.2839,0.2863,0.2895,0.2911,0.292,0.2942,0.2951,0.297,0.2965,0.2981,0.2983,0.2995,0.3,0.304,0.3035,0.3038,0.3072,0.3106,0.3114,0.3122,0.316,0.3171,0.3039,0.3039,0.3039,0,0.28,0.2825,0.2848,0.2872,0.2892,0.2917,0.2938,0.2958,0.2978,0.299,0.2979,0.3011,0.3007,0.3046,0.306,0.3054,0.3072,0.3044,0.3113,0.3121,0.3128,0.3165,0.3176,0.3042,0.3041,0.3041,0.3041,0,0.2818,0.2839,0.2854,0.2892,0.2917,0.2942,0.2977,0.2997,0.3008,0.3026,0.3063,0.307,0.3088,0.3094,0.3088,0.3141,0.3138,0.3117,0.3095,0.3141,0.3177,0.3188,0.3045,0.3044,0.3044,0.3043,0,0,0.2794,0.2854,0.2856,0.2873,0.2929,0.2946,0.299,0.3033,0.3068,0.3084,0.3128,0.3148,0.3155,0.3163,0.3165,0.3195,0.3263,0.318,0.318,0.3216,0.3346,0.3338,0.3349,0.3253,0.3255,0.3256,0.3354,0,0.2799,0.2836,0.2871,0.2906,0.2927,0.297,0.3012,0.3053,0.3096,0.3146,0.3168,0.3212,0.3182,0.3205,0.3228,0.3261,0.3292,0.3239,0.3297,0.3299,0.3285,0.3362,0.3281,0.3361,0.3365,0.3367,0.3368,0,0.2798,0.2825,0.2856,0.2912,0.2927,0.2954,0.3025,0.307,0.3153,0.3193,0.3241,0.3266,0.3323,0.329,0.3362,0.333,0.3341,0.3359,0.3363,0.3347,0.3312,0.3314,0.3381,0.3344,0.3385,0.3384,0.3382,0,0.2753,0.281,0.283,0.2849,0.2921,0.2942,0.2986,0.3073,0.3127,0.3233,0.3282,0.3347,0.3391,0.3419,0.3447,0.3413,0.353,0.3483,0.3488,0.3487,0.3427,0.3418,0.3462,0.3533,0.3533,0.3532,0.3532,0,0.2738,0.2751,0.2807,0.2816,0.2853,0.2912,0.2971,0.3041,0.3151,0.3216,0.3297,0.3365,0.3425,0.3488,0.3493,0.354,0.3564,0.352,0.3521,0.3441,0.3432,0.3402,0.338,0.3536,0.3535,0.3535,0.3534,0,0.2683,0.2721,0.2746,0.281,0.283,0.2853,0.2954,0.3001,0.3121,0.3215,0.3252,0.34,0.3496,0.355,0.3629,0.3606,0.3575,0.365,0.3561,0.3549,0.3497,0.348,0.3384,0.3275,0.3676,0.3677,0.3677,0,0.2659,0.2665,0.2722,0.2732,0.2759,0.2807,0.2842,0.297,0.3032,0.3221,0.3259,0.3411,0.3503,0.3644,0.367,0.3719,0.3597,0.3643,0.3557,0.3512,0.3495,0.3337,0.3239,0.35,0.3499,0.3498,0.3497,0,0.2612,0.2631,0.265,0.2678,0.2701,0.2734,0.2799,0.2848,0.2995,0.3089,0.3231,0.3338,0.3519,0.357,0.3663,0.3671,0.3509,0.3626,0.3601,0.3392,0.3202,0.309,0.3424,0.349,0.3491,0.3491,0.3492,0.3492,0.257,0.2569,0.2594,0.2612,0.2635,0.2648,0.264,0.2731,0.2818,0.2947,0.3122,0.3249,0.3444,0.359,0.3574,0.3551,0.3469,0.346,0.3457,0.331,0.3159,0.3486,0.3535,0.3536,0.3537,0.3537,0.3538,0,0.2506,0.2512,0.2526,0.2527,0.2504,0.2553,0.2591,0.2573,0.2617,0.2819,0.2942,0.3164,0.328,0.3402,0.3495,0.3412,0.3217,0.3327,0.3096,0.3013,0.3348,0.3297,0.327,0.327,0.327,0.327,0.327,0.327,0.247,0.245,0.2456,0.2393,0.2385,0.2314,0.2306,0.2324,0.2429,0.2584,0.2724,0.2883,0.3249,0.349,0.3473,0.3369,0.3105,0.2982,0.2931,0.3218,0.3229,0.3239,0.3186,0.3136,0.3136,0.2459,0.2455,0.2452]},{"header":{"parameterUnit":"m.s-1","parameterCategory":2,"la1":30.2991,"la2":30.254,"lo1":-89.0895,"lo2":-89.0444,"dy":0.0017,"dx":0.0017,"nx":28,"ny":28,"refTime":"2026-01-31T03:00:00:Z","depth":"0","parameterNumber":3,"parameterNumberName":"V-component_of_CURRENTS"},"data":[0,0,0,0,0,0,0,0,0,0,0,0,0,0,0,0,0,0,0,0,0,0,0,0,0,0,0,0,0,0,0,0,0,0,0,0,0,0,0,0,0,0,0,0,0,0,0,0,0,0,0,0,0,0,0,0,0,0,-0.0041,-0.0041,0,-0.0085,-0.0085,-0.0086,-0.0124,-0.0124,-0.0125,-0.0125,-0.0174,-0.0175,-0.0176,0,0,0,0,0,0,0,0,0,0,0,0,0,-0.0036,-0.0035,-0.0041,-0.0042,-0.0042,-0.0085,-0.0085,-0.0086,-0.0124,-0.0124,-0.0125,-0.0125,-0.0174,-0.0175,-0.0176,0,0,0,0,0,0,0,0,0,0,0,0,0,-0.0055,-0.0035,-0.0041,-0.0065,-0.0068,-0.0084,-0.0085,-0.0086,-0.0124,-0.0124,-0.0125,-0.0125,-0.0173,-0.0175,-0.0176,-0.0175,0,0,-0.0181,-0.0181,0,0,0,0,0,0,0,0,-0.0054,-0.0055,-0.0061,-0.0064,-0.0067,-0.0099,-0.0101,-0.0116,-0.0124,-0.0103,-0.0125,-0.0126,-0.0148,-0.0152,-0.016,-0.0177,-0.0179,-0.0181,-0.0182,-0.0182,-0.0183,0,0,0,0,0,0,0,-0.0052,-0.0054,-0.0059,-0.0062,-0.0065,-0.0089,-0.0093,-0.0105,-0.0123,-0.0105,-0.0108,-0.0111,-0.015,-0.0159,-0.0161,-0.018,-0.0181,-0.0182,-0.0183,-0.0183,-0.0197,-0.0197,0,0,0,0,0,0,-0.0042,-0.0052,-0.0058,-0.006,-0.006,-0.0089,-0.0092,-0.0088,-0.0123,-0.0128,-0.0111,-0.0113,-0.0156,-0.016,-0.0163,-0.0151,-0.0182,-0.0184,-0.0184,-0.0198,-0.0197,-0.0197,0,0,0,0,0,0,-0.0042,-0.0042,-0.0056,-0.0057,-0.0061,-0.0088,-0.0084,-0.0089,-0.0096,-0.0127,-0.0133,-0.0112,-0.0156,-0.0161,-0.0169,-0.0153,-0.0184,-0.0186,-0.0198,-0.0198,-0.0197,-0.0134,0,0,0,0,0,0,-0.0041,-0.0041,-0.0036,-0.0056,-0.006,-0.0054,-0.0083,-0.0089,-0.0097,-0.01,-0.013,-0.0135,-0.0157,-0.0167,-0.0171,-0.0156,-0.0187,-0.0199,-0.0198,-0.0197,-0.0136,-0.0131,-0.0126,0,0,0,0,0,-0.0041,-0.0021,-0.0036,-0.0037,-0.0052,-0.0053,-0.0057,-0.0079,-0.0096,-0.009,-0.0115,-0.0134,-0.0164,-0.0168,-0.0172,-0.0157,-0.02,-0.0198,-0.0197,-0.0139,-0.0132,-0.0126,0,0,0,0,0,0,-0.0012,-0.0024,-0.004,-0.0025,-0.0036,-0.0059,-0.0055,-0.0074,-0.0089,-0.0094,-0.0127,-0.0133,-0.0137,-0.0155,-0.0159,-0.016,-0.0185,-0.0185,-0.0139,-0.0133,-0.0127,-0.0107,-0.0188,0,0,0,0,0,-0.0004,0.0005,-0.0013,-0.0002,-0.0005,-0.0032,-0.0037,-0.0051,-0.0067,-0.0075,-0.0098,-0.012,-0.0136,-0.014,-0.0158,-0.0154,-0.0181,-0.0149,-0.0143,-0.0139,-0.0126,-0.0157,-0.0153,-0.0193,-0.0193,-0.0193,0,0,0.0008,0.0004,0.0008,0.0004,-0.0009,0.0004,-0.0035,-0.0034,-0.0025,-0.0077,-0.0072,-0.0104,-0.0132,-0.0132,-0.0134,-0.0144,-0.0143,-0.0137,-0.0133,-0.0123,-0.0155,-0.0151,-0.0148,-0.0192,-0.0192,-0.0192,0,0,0.0049,0.0036,0.0059,0.0055,0.0045,0.0032,0.0035,0.0015,0.0005,0.0002,-0.0035,-0.0055,-0.0076,-0.0092,-0.0103,-0.0078,-0.0118,-0.0087,-0.0038,-0.0068,-0.0065,-0.0062,-0.0094,-0.0095,-0.0079,-0.0079,-0.0079,0,0.0064,0.0091,0.0065,0.0087,0.0094,0.005,0.0079,0.0065,0.0044,0.0043,0.0014,-0.0025,-0.0054,-0.0051,-0.0047,-0.0065,-0.0092,-0.0058,-0.006,-0.0059,-0.0057,-0.0091,-0.0093,-0.0076,-0.0076,-0.0076,-0.0077,0,0.0122,0.0141,0.0156,0.0169,0.0172,0.019,0.017,0.0166,0.014,0.0123,0.0109,0.0058,0.0039,0.0021,-0.0006,-0.0004,-0.003,-0.0055,-0.0074,-0.0049,-0.0086,-0.0089,-0.0071,-0.0072,-0.0073,-0.0074,0,0,0.0168,0.0192,0.0198,0.0221,0.0219,0.0233,0.0246,0.0251,0.0268,0.022,0.0233,0.0185,0.0145,0.013,0.0085,0.0056,0.0034,0.0012,0.0008,-0.0015,-0.0035,-0.006,-0.0066,0.0006,0.0006,0.0006,-0.0067,0,0.0222,0.0286,0.028,0.0339,0.0371,0.0343,0.0363,0.0356,0.0338,0.0338,0.027,0.0261,0.0191,0.018,0.0139,0.0064,0.003,0.0056,-0.0059,-0.0062,-0.0084,-0.0069,-0.0072,-0.0137,-0.007,-0.007,-0.0071,0,0.0284,0.032,0.0387,0.0431,0.0442,0.0464,0.0492,0.0509,0.0488,0.0473,0.0439,0.038,0.0331,0.0263,0.0146,0.0165,0.0076,0.0006,0.0001,-0.0043,-0.0092,-0.0151,-0.0146,-0.0349,-0.0076,-0.0075,-0.0075,0,0.0339,0.0399,0.0458,0.0472,0.0508,0.0529,0.0547,0.0548,0.0585,0.0561,0.0573,0.0489,0.0459,0.0333,0.018,0.0165,0.0044,0.0003,-0.0105,-0.0109,-0.0142,-0.0148,-0.0341,-0.0079,-0.0079,-0.0078,-0.0078,0,0.0405,0.0453,0.0487,0.0519,0.0597,0.0593,0.0669,0.0671,0.0694,0.0752,0.065,0.0667,0.0475,0.0376,0.022,0.0054,0.0072,-0.009,-0.0125,-0.0121,-0.0124,-0.0328,-0.0454,-0.0081,-0.008,-0.008,-0.0079,0,0.0459,0.0477,0.0553,0.0602,0.0625,0.0681,0.0765,0.0822,0.0822,0.0892,0.0889,0.081,0.068,0.0475,0.0276,0.0123,-0.0169,-0.0111,-0.0095,-0.0127,-0.0419,-0.054,-0.0774,-0.0852,-0.0241,-0.0242,-0.0243,0,0.0493,0.0536,0.0621,0.0676,0.0702,0.0785,0.085,0.0887,0.0965,0.0989,0.1036,0.0924,0.0878,0.0568,0.027,-0.001,-0.0205,-0.02,-0.0233,-0.0432,-0.0593,-0.0682,-0.0736,-0.026,-0.0261,-0.0261,-0.0262,0,0.0564,0.0589,0.0651,0.0767,0.0846,0.0952,0.105,0.1131,0.118,0.1232,0.1283,0.124,0.0933,0.0655,0.0256,0.0047,-0.0359,-0.0224,-0.0437,-0.0627,-0.073,-0.0821,-0.0222,-0.0268,-0.0268,-0.0267,-0.0267,-0.0267,0.0618,0.0678,0.0762,0.0875,0.0973,0.1106,0.1207,0.1316,0.1445,0.154,0.1485,0.1457,0.1013,0.0474,0.0163,-0.0417,-0.0423,-0.0591,-0.0721,-0.0791,-0.0873,-0.0286,-0.0367,-0.0367,-0.0367,-0.0367,-0.0367,0,0.0694,0.0761,0.0868,0.1003,0.1124,0.1162,0.1336,0.1442,0.1601,0.1686,0.1728,0.1467,0.094,0.0383,-0.0394,-0.0821,-0.0967,-0.1072,-0.1211,-0.1239,-0.0722,-0.0728,-0.0882,-0.0882,-0.0881,-0.0881,-0.0881,-0.0881,0.0736,0.0849,0.0905,0.1111,0.1207,0.1375,0.1478,0.1626,0.1734,0.1836,0.1805,0.1737,0.1262,-0.0139,-0.1096,-0.1317,-0.1624,-0.1719,-0.1851,-0.1523,-0.1488,-0.1454,-0.1489,-0.18,-0.1801,-0.2292,-0.2298,-0.2302]}],[{"header":{"parameterUnit":"m.s-1","parameterCategory":2,"la1":30.2991,"la2":30.254,"lo1":-89.0895,"lo2":-89.0444,"dy":0.0017,"dx":0.0017,"nx":28,"ny":28,"refTime":"2026-01-31T03:00:00:Z","depth":"2","parameterNumber":2,"parameterNumberName":"U-component_of_CURRENTS"},"data":[0,0,0,0,0,0,0,0,0,0,0,0,0,0,0,0,0,0,0,0,0,0,0,0,0,0,0,0,0,0,0,0,0,0,0,0,0,0,0,0,0,0,0,0,0,0,0,0,0,0,0,0,0,0,0,0,0,0,0.2741,0.2742,0,0.2773,0.2774,0.2774,0.277,0.277,0.277,0.277,0.276,0.276,0.276,0,0,0,0,0,0,0,0,0,0,0,0,0,0.2673,0.2674,0.2741,0.2742,0.2742,0.2773,0.2774,0.2774,0.277,0.277,0.277,0.277,0.276,0.276,0.276,0,0,0,0,0,0,0,0,0,0,0,0,0,0.27,0.2674,0.2741,0.2747,0.2748,0.2773,0.2774,0.2774,0.277,0.277,0.277,0.2769,0.276,0.276,0.276,0.2764,0,0,0.2759,0.2759,0,0,0,0,0,0,0,0,0.2699,0.2702,0.2745,0.2747,0.2748,0.2771,0.2746,0.277,0.277,0.2758,0.277,0.2769,0.2762,0.2762,0.2764,0.2764,0.2763,0.2759,0.2759,0.2759,0.2759,0,0,0,0,0,0,0,0.2697,0.2701,0.275,0.2746,0.2748,0.2748,0.2751,0.2751,0.2758,0.2759,0.276,0.2769,0.2762,0.2764,0.2764,0.2763,0.2759,0.2759,0.2759,0.2759,0.2802,0.2804,0,0,0,0,0,0,0.2701,0.2699,0.2749,0.2751,0.2726,0.2749,0.2753,0.2761,0.2759,0.2759,0.277,0.2769,0.2764,0.2764,0.2763,0.2798,0.2759,0.2759,0.2759,0.2801,0.2803,0.2804,0,0,0,0,0,0,0.2699,0.2705,0.2748,0.2729,0.2735,0.2751,0.276,0.2762,0.2771,0.2768,0.2767,0.2779,0.2764,0.2763,0.2776,0.2796,0.2759,0.2759,0.28,0.2802,0.2803,0.2848,0,0,0,0,0,0,0.2697,0.2704,0.2711,0.2729,0.2736,0.2772,0.2761,0.2763,0.2779,0.2779,0.2775,0.2774,0.2764,0.2777,0.2776,0.2795,0.2759,0.2798,0.2801,0.2803,0.2845,0.2851,0.2857,0,0,0,0,0,0.2694,0.2706,0.2711,0.2718,0.2746,0.2774,0.2777,0.2785,0.278,0.279,0.279,0.2774,0.2791,0.2777,0.2777,0.2796,0.2797,0.28,0.2803,0.2843,0.285,0.2857,0,0,0,0,0,0,0.2678,0.2708,0.2714,0.2733,0.2757,0.2775,0.2787,0.2791,0.2799,0.2798,0.2787,0.2786,0.2807,0.2797,0.2783,0.2817,0.2793,0.2795,0.2823,0.283,0.2836,0.2846,0.2758,0,0,0,0,0,0.268,0.2698,0.2725,0.2742,0.2756,0.2773,0.2785,0.2793,0.2804,0.2807,0.2804,0.2806,0.2817,0.282,0.2824,0.284,0.2849,0.2854,0.286,0.2865,0.2873,0.2906,0.2916,0.2813,0.2813,0.2813,0,0,0.2678,0.2698,0.2707,0.2741,0.2758,0.2782,0.2778,0.2804,0.2822,0.2804,0.2823,0.2826,0.2827,0.2848,0.2856,0.2842,0.2902,0.2868,0.2872,0.2878,0.291,0.292,0.2929,0.2815,0.2815,0.2814,0,0,0.2684,0.2703,0.272,0.2743,0.2778,0.2793,0.2804,0.2827,0.2838,0.2859,0.2856,0.2874,0.2879,0.2891,0.2897,0.2938,0.2932,0.2937,0.2972,0.3004,0.3012,0.302,0.3055,0.3065,0.2938,0.2938,0.2938,0,0.268,0.2706,0.2729,0.2754,0.2775,0.28,0.2823,0.2843,0.2866,0.2879,0.2871,0.2906,0.2904,0.2942,0.2958,0.2952,0.2969,0.2943,0.3011,0.3019,0.3026,0.306,0.3071,0.2941,0.2941,0.294,0.294,0,0.2699,0.2723,0.2738,0.2777,0.2802,0.2829,0.2863,0.2885,0.2899,0.2917,0.2957,0.2965,0.2986,0.2992,0.2986,0.3039,0.3036,0.3016,0.2992,0.3039,0.3072,0.3082,0.2944,0.2944,0.2943,0.2942,0,0,0.2679,0.2739,0.2742,0.276,0.2817,0.2834,0.2879,0.2922,0.2958,0.2978,0.3022,0.3045,0.3053,0.3061,0.3064,0.3093,0.3159,0.3078,0.3079,0.3112,0.3238,0.3222,0.3231,0.315,0.3152,0.3153,0.3244,0,0.2687,0.2725,0.2759,0.2796,0.2818,0.2862,0.2904,0.2945,0.2989,0.3039,0.3062,0.3108,0.308,0.3104,0.3127,0.3158,0.3187,0.3137,0.3189,0.3191,0.3169,0.3243,0.296,0.3016,0.3254,0.3256,0.3257,0,0.2688,0.2716,0.2749,0.2805,0.2821,0.2849,0.2921,0.2966,0.3048,0.3088,0.3137,0.3163,0.322,0.3188,0.3257,0.3226,0.3236,0.3252,0.3255,0.3231,0.3194,0.3007,0.3026,0.3275,0.3273,0.3272,0.3271,0,0.2646,0.2704,0.2727,0.2746,0.2818,0.2842,0.2886,0.2972,0.3026,0.3131,0.3181,0.3244,0.3288,0.3313,0.3339,0.3307,0.3415,0.3371,0.3366,0.3364,0.313,0.3106,0.3418,0.3418,0.3418,0.3417,0.3417,0,0.2634,0.265,0.2707,0.2718,0.2757,0.2816,0.2878,0.2946,0.3054,0.3118,0.3198,0.3264,0.3322,0.338,0.3383,0.3421,0.3449,0.3396,0.3395,0.314,0.3117,0.3336,0.3326,0.3421,0.342,0.3419,0.3419,0,0.2584,0.2623,0.265,0.2715,0.2737,0.2763,0.2864,0.2911,0.303,0.3123,0.3161,0.3301,0.3389,0.3439,0.351,0.3483,0.352,0.3517,0.3225,0.3189,0.3434,0.3425,0.3529,0.353,0.353,0.353,0.353,0,0.2562,0.2571,0.263,0.2642,0.2672,0.2722,0.2759,0.2884,0.2945,0.313,0.3166,0.331,0.3387,0.3512,0.3499,0.353,0.3557,0.3282,0.3171,0.3462,0.345,0.344,0.3431,0.2875,0.2869,0.2865,0.2862,0,0.252,0.2541,0.2561,0.2593,0.262,0.2654,0.2721,0.2769,0.2912,0.3002,0.3135,0.3227,0.336,0.3282,0.3347,0.332,0.3258,0.3201,0.3575,0.2907,0.2856,0.2842,0.2851,0.2824,0.2828,0.2831,0.2833,0.2834,0.2482,0.2484,0.251,0.2532,0.2558,0.2573,0.2567,0.2649,0.273,0.2822,0.2992,0.3029,0.3073,0.3051,0.2973,0.2915,0.3137,0.2967,0.2974,0.2987,0.2912,0.2867,0.2822,0.2826,0.2829,0.2832,0.2834,0,0.2418,0.243,0.2447,0.2452,0.2427,0.2484,0.2521,0.2483,0.2512,0.264,0.2724,0.2541,0.2531,0.257,0.2429,0.2462,0.2385,0.2355,0.2192,0.2235,0.2271,0.2152,0.1864,0.1861,0.1858,0.1855,0,0,0.2384,0.2364,0.237,0.2311,0.2313,0.2238,0.223,0.2212,0.2256,0.2229,0.2231,0.244,0.253,0.2154,0.2117,0.1956,0.2079,0.1895,0.2681,0.2535,0.2567,0.2647,0.2516,0,0,0,0,0]},{"header":{"parameterUnit":"m.s-1","parameterCategory":2,"la1":30.2991,"la2":30.254,"lo1":-89.0895,"lo2":-89.0444,"dy":0.0017,"dx":0.0017,"nx":28,"ny":28,"refTime":"2026-01-31T03:00:00:Z","depth":"2","parameterNumber":3,"parameterNumberName":"V-component_of_CURRENTS"},"data":[0,0,0,0,0,0,0,0,0,0,0,0,0,0,0,0,0,0,0,0,0,0,0,0,0,0,0,0,0,0,0,0,0,0,0,0,0,0,0,0,0,0,0,0,0,0,0,0,0,0,0,0,0,0,0,0,0,0,0.0045,0.0045,0,0.0001,0.0001,0.0,-0.0039,-0.0039,-0.0039,-0.004,-0.0089,-0.009,-0.0091,0,0,0,0,0,0,0,0,0,0,0,0,0,0.0054,0.0054,0.0045,0.0045,0.0044,0.0001,0.0001,-0.0,-0.0038,-0.0039,-0.0039,-0.004,-0.0089,-0.009,-0.0091,0,0,0,0,0,0,0,0,0,0,0,0,0,0.0033,0.0054,0.0045,0.002,0.0018,0.0001,0.0001,-0.0,-0.0038,-0.0039,-0.0039,-0.004,-0.0089,-0.009,-0.0091,-0.0089,0,0,-0.0096,-0.0096,0,0,0,0,0,0,0,0,0.0035,0.0033,0.0024,0.0022,0.0019,-0.0013,-0.0015,-0.003,-0.0038,-0.0018,-0.004,-0.004,-0.0063,-0.0067,-0.0075,-0.0091,-0.0093,-0.0096,-0.0097,-0.0097,-0.0098,0,0,0,0,0,0,0,0.0036,0.0034,0.0027,0.0024,0.0021,-0.0003,-0.0006,-0.0018,-0.0037,-0.002,-0.0022,-0.0026,-0.0065,-0.0073,-0.0076,-0.0094,-0.0096,-0.0097,-0.0098,-0.0099,-0.0114,-0.0114,0,0,0,0,0,0,0.0046,0.0036,0.0028,0.0026,0.0026,-0.0003,-0.0006,-0.0003,-0.0037,-0.0043,-0.0025,-0.0028,-0.0071,-0.0075,-0.0078,-0.0069,-0.0097,-0.0099,-0.01,-0.0115,-0.0114,-0.0114,0,0,0,0,0,0,0.0046,0.0046,0.003,0.003,0.0026,-0.0002,0.0002,-0.0003,-0.0012,-0.0042,-0.0048,-0.0028,-0.0071,-0.0076,-0.0085,-0.0071,-0.0099,-0.0101,-0.0115,-0.0115,-0.0114,-0.0055,0,0,0,0,0,0,0.0047,0.0047,0.0051,0.0031,0.0027,0.0031,0.0003,-0.0004,-0.0013,-0.0016,-0.0046,-0.0051,-0.0072,-0.0083,-0.0086,-0.0074,-0.0102,-0.0116,-0.0115,-0.0114,-0.0058,-0.0053,-0.0048,0,0,0,0,0,0.0047,0.0066,0.0051,0.005,0.0034,0.0032,0.0028,0.0005,-0.0012,-0.0007,-0.0031,-0.005,-0.008,-0.0083,-0.0088,-0.0075,-0.0116,-0.0115,-0.0114,-0.006,-0.0054,-0.0048,0,0,0,0,0,0,0.0075,0.0063,0.0047,0.006,0.0049,0.0026,0.0028,0.001,-0.0006,-0.0011,-0.0043,-0.005,-0.0055,-0.0072,-0.0075,-0.0078,-0.0102,-0.0101,-0.0059,-0.0053,-0.0048,-0.0029,-0.0103,0,0,0,0,0,0.0082,0.009,0.0072,0.0082,0.0078,0.0052,0.0046,0.0032,0.0015,0.0007,-0.0015,-0.0038,-0.0054,-0.0059,-0.0077,-0.0074,-0.01,-0.007,-0.0065,-0.0061,-0.0049,-0.0081,-0.0078,-0.0111,-0.0111,-0.0111,0,0,0.0094,0.0089,0.0092,0.0088,0.0074,0.0086,0.0048,0.0047,0.0055,0.0005,0.0008,-0.0023,-0.0051,-0.0052,-0.0055,-0.0064,-0.0067,-0.006,-0.0056,-0.0046,-0.008,-0.0077,-0.0074,-0.011,-0.011,-0.011,0,0,0.0131,0.0119,0.0139,0.0136,0.0124,0.0111,0.0114,0.0093,0.0082,0.0078,0.0043,0.0022,0.0001,-0.0016,-0.0027,-0.0005,-0.0044,-0.0013,0.0032,0.0,0.0003,0.0005,-0.0029,-0.003,-0.0006,-0.0006,-0.0006,0,0.0145,0.017,0.0145,0.0165,0.0171,0.0128,0.0155,0.014,0.0119,0.0116,0.0089,0.0048,0.002,0.0021,0.0025,0.0007,-0.002,0.0013,0.0007,0.0008,0.0009,-0.0025,-0.0028,-0.0003,-0.0004,-0.0004,-0.0004,0,0.0199,0.0216,0.023,0.0242,0.0244,0.026,0.0239,0.0234,0.0209,0.019,0.0174,0.0125,0.0105,0.0088,0.0063,0.006,0.0036,0.0013,-0.0005,0.0016,-0.0022,-0.0026,0.0001,-0.0,-0.0001,-0.0002,0,0,0.0241,0.0265,0.0269,0.0291,0.0288,0.03,0.031,0.0313,0.0327,0.028,0.029,0.0242,0.0204,0.0188,0.0145,0.0114,0.0089,0.0073,0.007,0.0044,0.0017,-0.0009,-0.0016,0.0063,0.0063,0.0063,-0.0013,0,0.0292,0.0351,0.0346,0.0401,0.0431,0.0402,0.042,0.0412,0.0393,0.0389,0.0322,0.0312,0.0246,0.0235,0.0193,0.0119,0.0084,0.0112,-0.0003,-0.0006,-0.0029,-0.0019,-0.0002,-0.0069,-0.0017,-0.0018,-0.0018,0,0.035,0.0383,0.0446,0.0487,0.0497,0.0517,0.0541,0.0555,0.0532,0.0516,0.0481,0.0423,0.0373,0.0309,0.0191,0.0212,0.0125,0.0056,0.0051,0.0007,-0.0038,-0.0083,-0.0078,-0.0025,-0.0024,-0.0024,-0.0023,0,0.0401,0.0457,0.0512,0.0526,0.0558,0.0578,0.0594,0.0592,0.0625,0.0599,0.0609,0.0523,0.0492,0.0369,0.022,0.0207,0.0082,0.0046,-0.0062,-0.0065,-0.0082,-0.0086,-0.0037,-0.0037,-0.0037,-0.0036,-0.0036,0,0.0463,0.0507,0.054,0.057,0.0643,0.0638,0.0709,0.0709,0.0727,0.078,0.0681,0.0692,0.0505,0.0405,0.0255,0.009,0.0107,-0.0049,-0.0083,-0.0062,-0.0063,-0.0049,-0.0049,-0.0039,-0.0039,-0.0038,-0.0038,0,0.0512,0.053,0.0602,0.0648,0.067,0.0722,0.0801,0.0854,0.0851,0.0913,0.091,0.0826,0.0693,0.0494,0.0298,0.0151,-0.0014,-0.0079,-0.0043,-0.0072,-0.0152,-0.0148,-0.0205,-0.0207,-0.0208,-0.0209,-0.021,0,0.0544,0.0585,0.0666,0.0718,0.0742,0.0822,0.0883,0.0916,0.0988,0.1003,0.1044,0.0928,0.0873,0.0565,0.0279,0.0008,-0.0021,-0.0153,-0.0177,-0.014,-0.0168,-0.0162,-0.0157,-0.0182,-0.0183,-0.0183,-0.0183,0,0.0609,0.0633,0.0692,0.0803,0.0878,0.098,0.1071,0.1146,0.1189,0.1232,0.1267,0.1216,0.0912,0.0636,0.0252,0.0067,-0.0112,-0.0171,-0.0138,-0.0138,-0.0123,-0.0149,-0.0143,-0.0188,-0.0187,-0.0187,-0.0187,-0.0187,0.0659,0.0715,0.0795,0.0903,0.0998,0.1123,0.1217,0.1312,0.1426,0.1489,0.1432,0.1353,0.1023,0.053,0.02,-0.0151,-0.0133,-0.0253,-0.0249,-0.0246,-0.0225,-0.0213,-0.0291,-0.0291,-0.0291,-0.0291,-0.0291,0,0.0726,0.0792,0.0894,0.1022,0.1134,0.1176,0.1337,0.142,0.1553,0.1594,0.1605,0.1279,0.0953,0.0579,0.0059,-0.0245,-0.0268,-0.0341,-0.0299,-0.0292,-0.0287,-0.0268,-0.0346,-0.0347,-0.0348,-0.0349,0,0,0.0763,0.0869,0.0923,0.1115,0.121,0.136,0.1456,0.157,0.1636,0.1677,0.1629,0.1514,0.1059,0.0673,0.025,-0.0042,-0.0094,-0.0104,-0.0029,0.0078,0.0088,-0.0207,-0.0167,0,0,0,0,0]}],[{"header":{"parameterUnit":"m.s-1","parameterCategory":2,"la1":30.2991,"la2":30.254,"lo1":-89.0895,"lo2":-89.0444,"dy":0.0017,"dx":0.0017,"nx":28,"ny":28,"refTime":"2026-01-31T03:00:00:Z","depth":"4","parameterNumber":2,"parameterNumberName":"U-component_of_CURRENTS"},"data":[0,0,0,0,0,0,0,0,0,0,0,0,0,0,0,0,0,0,0,0,0,0,0,0,0,0,0,0,0,0,0,0,0,0,0,0,0,0,0,0,0,0,0,0,0,0,0,0,0,0,0,0,0,0,0,0,0,0,0.1743,0.1744,0,0.1828,0.1829,0.1829,0.1893,0.1894,0.1895,0.1896,0.1984,0.1985,0.1987,0,0,0,0,0,0,0,0,0,0,0,0,0,0.1626,0.1627,0.1742,0.1744,0.1745,0.1828,0.1829,0.183,0.1893,0.1894,0.1895,0.1896,0.1983,0.1985,0.1987,0,0,0,0,0,0,0,0,0,0,0,0,0,0.1688,0.1628,0.1742,0.1789,0.1794,0.1828,0.1829,0.183,0.1893,0.1894,0.1896,0.1897,0.1983,0.1985,0.1987,0.1978,0,0,0.1995,0.1996,0,0,0,0,0,0,0,0,0.1684,0.1692,0.1781,0.1786,0.1791,0.1854,0.182,0.188,0.1893,0.1853,0.1896,0.1897,0.1941,0.1947,0.1957,0.1982,0.1986,0.1995,0.1996,0.1997,0.1998,0,0,0,0,0,0,0,0.168,0.1688,0.1774,0.1782,0.1789,0.1803,0.1812,0.1831,0.1887,0.1856,0.1862,0.1875,0.1944,0.1954,0.1959,0.1987,0.1995,0.1997,0.1998,0.1999,0.2127,0.2128,0,0,0,0,0,0,0.1674,0.1684,0.1771,0.1776,0.1743,0.1804,0.1815,0.183,0.1887,0.1898,0.1874,0.1878,0.195,0.1956,0.1963,0.2061,0.1997,0.1999,0.2001,0.2125,0.2127,0.2129,0,0,0,0,0,0,0.1671,0.1681,0.1768,0.1734,0.1747,0.1805,0.1821,0.1831,0.1882,0.1901,0.1911,0.1919,0.1951,0.1959,0.202,0.2061,0.2001,0.2003,0.2122,0.2125,0.2128,0.219,0,0,0,0,0,0,0.1667,0.1679,0.1706,0.1734,0.1748,0.1814,0.1821,0.1832,0.1887,0.1894,0.1942,0.195,0.1952,0.2016,0.2022,0.2063,0.2005,0.212,0.2124,0.2127,0.2185,0.2194,0.2202,0,0,0,0,0,0.1663,0.1688,0.1706,0.1718,0.1777,0.1815,0.1825,0.1867,0.1889,0.1916,0.1955,0.195,0.2044,0.202,0.2026,0.2069,0.2118,0.2123,0.2127,0.2181,0.2192,0.2202,0,0,0,0,0,0,0.1653,0.1698,0.1719,0.1758,0.1798,0.1828,0.1865,0.1888,0.194,0.196,0.1973,0.1983,0.2052,0.2052,0.2026,0.2117,0.2081,0.2087,0.212,0.2131,0.2139,0.214,0.2007,0,0,0,0,0,0.1661,0.1697,0.1735,0.1773,0.1796,0.1837,0.1866,0.1895,0.1934,0.1961,0.1994,0.2032,0.2067,0.2094,0.2121,0.2169,0.2168,0.2202,0.2211,0.2218,0.2224,0.2256,0.2267,0.2144,0.2144,0.2143,0,0,0.1669,0.17,0.1722,0.1774,0.1811,0.1849,0.1858,0.1914,0.1955,0.196,0.2039,0.2065,0.2087,0.2145,0.2176,0.2157,0.2254,0.2224,0.223,0.2232,0.2262,0.2273,0.2284,0.2147,0.2146,0.2146,0,0,0.1687,0.1731,0.1763,0.1799,0.1861,0.1885,0.191,0.1963,0.2004,0.2069,0.2087,0.2141,0.2195,0.222,0.2236,0.2308,0.2298,0.2324,0.2369,0.24,0.241,0.2419,0.2436,0.2445,0.2328,0.2328,0.2328,0,0.1699,0.1743,0.178,0.1819,0.1857,0.1905,0.1947,0.199,0.2059,0.2094,0.2107,0.2207,0.2228,0.2293,0.2324,0.2328,0.2339,0.2326,0.241,0.2419,0.2427,0.2442,0.2452,0.2331,0.2331,0.2331,0.233,0,0.1728,0.178,0.1806,0.1871,0.1914,0.1963,0.2018,0.2075,0.2129,0.2165,0.2256,0.2292,0.2348,0.2368,0.2371,0.2445,0.2433,0.2416,0.238,0.2443,0.2455,0.2464,0.2337,0.2335,0.2334,0.2333,0,0,0.1708,0.1808,0.1822,0.1861,0.195,0.1981,0.2062,0.2135,0.2196,0.2265,0.2338,0.2407,0.2433,0.2455,0.2472,0.2505,0.2574,0.2494,0.2494,0.2503,0.2642,0.2476,0.247,0.2575,0.2577,0.2579,0.2628,0,0.1727,0.18,0.185,0.193,0.1971,0.2044,0.2111,0.2185,0.2259,0.2341,0.2393,0.2473,0.2464,0.2512,0.2542,0.2573,0.2602,0.2562,0.2586,0.2587,0.2426,0.2476,0.2585,0.2635,0.2637,0.2639,0.264,0,0.1732,0.1785,0.1862,0.1962,0.199,0.205,0.2167,0.2236,0.235,0.2412,0.2493,0.2537,0.2616,0.2596,0.2668,0.2647,0.2654,0.2664,0.2665,0.2493,0.2437,0.256,0.2656,0.2655,0.2654,0.2653,0.2652,0,0.1681,0.1789,0.1853,0.1889,0.2008,0.2069,0.2143,0.2262,0.2332,0.2472,0.2534,0.2621,0.2681,0.271,0.2732,0.2717,0.2792,0.2764,0.2617,0.2606,0.2713,0.2703,0.2807,0.2807,0.2806,0.2806,0.2806,0,0.1659,0.1715,0.1843,0.1876,0.1963,0.2057,0.2165,0.2255,0.2387,0.2461,0.2571,0.2628,0.2717,0.2761,0.2764,0.2712,0.2815,0.263,0.2608,0.2738,0.273,0.2719,0.2708,0.2808,0.2808,0.2807,0.2807,0,0.159,0.1676,0.1755,0.1893,0.1943,0.2008,0.2169,0.2233,0.2379,0.2481,0.2531,0.266,0.2713,0.2766,0.282,0.2734,0.2718,0.2674,0.2818,0.2802,0.2505,0.2498,0.2509,0.2504,0.2499,0.2495,0.2492,0,0.1558,0.1594,0.1749,0.1798,0.1871,0.1985,0.2055,0.2216,0.2282,0.2468,0.2493,0.261,0.2669,0.2606,0.268,0.2667,0.2634,0.2607,0.2543,0.2498,0.2476,0.2476,0.2474,0.2485,0.2484,0.2482,0.2481,0,0.1493,0.1567,0.1631,0.1733,0.1819,0.1898,0.2014,0.2048,0.2217,0.236,0.2398,0.2423,0.2473,0.2496,0.2506,0.2493,0.2614,0.2558,0.2566,0.2506,0.2468,0.2451,0.2455,0.2465,0.2468,0.2469,0.247,0,0.1449,0.1476,0.1571,0.1646,0.1742,0.1782,0.1859,0.1926,0.2008,0.2204,0.2208,0.2327,0.2447,0.2406,0.2417,0.239,0.2348,0.2263,0.2286,0.2305,0.2212,0.2132,0.201,0,0,0,0,0,0.1392,0.1409,0.1472,0.1541,0.1627,0.1685,0.1812,0.1889,0.2044,0.2014,0.2107,0.2142,0.2157,0.2222,0.2151,0.2325,0.236,0.2233,0.2275,0.2377,0.2395,0.2303,0,0,0,0,0,0,0.1353,0.1409,0.1431,0.1434,0.1458,0.1538,0.1612,0.172,0.1715,0.1876,0.1895,0.2012,0.2058,0.2169,0.2109,0.2126,0.2108,0.2311,0.2305,0.2366,0.2383,0.2398,0.231,0,0,0,0,0]},{"header":{"parameterUnit":"m.s-1","parameterCategory":2,"la1":30.2991,"la2":30.254,"lo1":-89.0895,"lo2":-89.0444,"dy":0.0017,"dx":0.0017,"nx":28,"ny":28,"refTime":"2026-01-31T03:00:00:Z","depth":"4","parameterNumber":3,"parameterNumberName":"V-component_of_CURRENTS"},"data":[0,0,0,0,0,0,0,0,0,0,0,0,0,0,0,0,0,0,0,0,0,0,0,0,0,0,0,0,0,0,0,0,0,0,0,0,0,0,0,0,0,0,0,0,0,0,0,0,0,0,0,0,0,0,0,0,0,0,0.0158,0.0158,0,0.0125,0.0124,0.0124,0.0099,0.0099,0.0099,0.0099,0.0059,0.0058,0.0057,0,0,0,0,0,0,0,0,0,0,0,0,0,0.0171,0.0171,0.0159,0.0158,0.0158,0.0125,0.0124,0.0124,0.0099,0.0099,0.0099,0.0098,0.0059,0.0058,0.0057,0,0,0,0,0,0,0,0,0,0,0,0,0,0.0154,0.0171,0.0159,0.0142,0.014,0.0125,0.0124,0.0124,0.0099,0.0099,0.0099,0.0098,0.0059,0.0058,0.0057,0.0054,0,0,0.0053,0.0052,0,0,0,0,0,0,0,0,0.0155,0.0153,0.0145,0.0143,0.0141,0.0116,0.0114,0.01,0.0099,0.0114,0.0099,0.0098,0.0078,0.0075,0.0069,0.0052,0.005,0.0053,0.0052,0.0051,0.0051,0,0,0,0,0,0,0,0.0156,0.0155,0.0145,0.0144,0.0142,0.0125,0.0123,0.0111,0.0098,0.0113,0.0111,0.0108,0.0077,0.007,0.0068,0.005,0.0053,0.0051,0.0051,0.005,0.0023,0.0023,0,0,0,0,0,0,0.0163,0.0156,0.0146,0.0144,0.0148,0.0125,0.0123,0.0124,0.0098,0.0094,0.0108,0.0107,0.0073,0.0069,0.0066,0.0066,0.0051,0.005,0.0049,0.0023,0.0023,0.0023,0,0,0,0,0,0,0.0163,0.0163,0.0147,0.0149,0.0146,0.0126,0.0127,0.0123,0.0118,0.0094,0.009,0.0107,0.0072,0.0068,0.0059,0.0064,0.0049,0.0048,0.0023,0.0023,0.0023,0.0062,0,0,0,0,0,0,0.0164,0.0163,0.0167,0.015,0.0146,0.0145,0.0127,0.0123,0.0117,0.0115,0.0092,0.0088,0.0072,0.0061,0.0058,0.0062,0.0047,0.0022,0.0023,0.0023,0.0061,0.0064,0.0066,0,0,0,0,0,0.0165,0.0176,0.0167,0.0166,0.0152,0.0146,0.0143,0.0126,0.0117,0.012,0.0102,0.0089,0.0059,0.006,0.0056,0.006,0.0022,0.0023,0.0023,0.006,0.0063,0.0066,0,0,0,0,0,0,0.0184,0.0174,0.0164,0.0172,0.0161,0.0142,0.0143,0.0131,0.0119,0.0117,0.0092,0.0087,0.0079,0.0064,0.0066,0.0051,0.0038,0.0037,0.0067,0.007,0.0073,0.0086,0.0046,0,0,0,0,0,0.019,0.0196,0.018,0.0186,0.0182,0.0162,0.0158,0.0147,0.0134,0.0128,0.0111,0.0092,0.0076,0.007,0.0054,0.005,0.0026,0.0048,0.0051,0.0053,0.0061,0.0025,0.0026,0.0023,0.0023,0.0023,0,0,0.0198,0.0194,0.0196,0.019,0.018,0.0184,0.0159,0.0157,0.0159,0.0126,0.0125,0.0101,0.0077,0.007,0.0065,0.0059,0.004,0.0053,0.0056,0.0062,0.0026,0.0026,0.0026,0.0023,0.0023,0.0023,0,0,0.0222,0.0215,0.0227,0.0223,0.0213,0.0202,0.0204,0.0187,0.0178,0.0172,0.0146,0.0127,0.0108,0.0089,0.0077,0.0085,0.0054,0.0079,0.0106,0.0071,0.0071,0.0071,0.0036,0.0033,0.0082,0.0082,0.0082,0,0.0232,0.0246,0.023,0.024,0.0243,0.0214,0.0229,0.0216,0.0198,0.0194,0.0179,0.014,0.0117,0.0104,0.0106,0.0092,0.0067,0.0097,0.0075,0.0074,0.0073,0.0038,0.0033,0.0084,0.0084,0.0083,0.0083,0,0.0263,0.0274,0.0283,0.0288,0.0287,0.0296,0.0279,0.0274,0.0257,0.0241,0.0222,0.0184,0.0163,0.0147,0.013,0.0114,0.0096,0.0081,0.0069,0.0076,0.0038,0.0033,0.0087,0.0086,0.0085,0.0085,0,0,0.0287,0.0302,0.0306,0.032,0.0315,0.0321,0.0324,0.032,0.0326,0.029,0.029,0.0248,0.0223,0.0207,0.0174,0.0141,0.0108,0.0114,0.0112,0.0084,0.0031,0.0017,0.001,0.0089,0.0088,0.0088,0.0006,0,0.0317,0.0352,0.035,0.0384,0.0401,0.0383,0.0391,0.0381,0.0365,0.0356,0.0302,0.0291,0.0247,0.0238,0.0197,0.0134,0.0096,0.0132,0.0025,0.0022,0.0012,0.0004,0.0086,0.0002,0.0,-0.0001,-0.0001,0,0.0348,0.0369,0.041,0.0437,0.0443,0.0459,0.047,0.0477,0.0452,0.0439,0.0407,0.0364,0.0314,0.0275,0.0164,0.0189,0.0118,0.006,0.0055,0.0028,-0.0001,-0.0007,-0.0012,-0.0011,-0.001,-0.0009,-0.0009,0,0.0376,0.0413,0.045,0.0459,0.0481,0.0497,0.051,0.0503,0.0521,0.0496,0.0498,0.0423,0.0392,0.0292,0.017,0.0169,0.004,0.0023,-0.0061,-0.0063,-0.0043,-0.0042,-0.0057,-0.0057,-0.0056,-0.0056,-0.0056,0,0.0406,0.0438,0.047,0.0489,0.0541,0.054,0.059,0.0587,0.0593,0.0617,0.0549,0.0536,0.0395,0.0301,0.0186,0.0046,0.005,-0.0057,-0.0084,-0.0025,-0.0021,-0.0047,-0.0045,-0.0059,-0.0059,-0.0058,-0.0058,0,0.0427,0.0447,0.0496,0.0535,0.0557,0.0594,0.0656,0.0686,0.0685,0.0711,0.0707,0.0621,0.0496,0.0345,0.0176,0.0076,-0.0061,-0.0112,-0.0037,-0.0059,-0.0145,-0.014,-0.021,-0.0211,-0.0212,-0.0213,-0.0214,0,0.0438,0.0466,0.0536,0.0575,0.0598,0.0661,0.0704,0.0733,0.0767,0.0759,0.0765,0.066,0.0581,0.0335,0.017,-0.0055,-0.0089,-0.0161,-0.0157,-0.0141,-0.0161,-0.0154,-0.0148,-0.0215,-0.0215,-0.0216,-0.0216,0,0.0457,0.0486,0.0527,0.0611,0.0669,0.0742,0.0803,0.0834,0.0858,0.0864,0.0813,0.0681,0.0536,0.0337,0.016,-0.0002,-0.0115,-0.0172,-0.0171,-0.0167,-0.0148,-0.0166,-0.0158,-0.0219,-0.0219,-0.0218,-0.0218,0,0.0471,0.0504,0.0563,0.0637,0.0718,0.0784,0.0822,0.0854,0.0887,0.0874,0.0854,0.0697,0.061,0.0363,0.02,0.0038,-0.0005,-0.0059,-0.0065,-0.0063,-0.0001,0.0046,0.0012,0,0,0,0,0,0.0478,0.0515,0.0584,0.0659,0.0741,0.0792,0.0868,0.0896,0.0923,0.0896,0.0879,0.0744,0.0497,0.0389,0.0226,0.0167,-0.0043,-0.0032,-0.011,-0.0238,-0.0234,-0.0187,0,0,0,0,0,0,0.0478,0.054,0.0577,0.0666,0.0723,0.0811,0.0864,0.0883,0.0871,0.0872,0.0747,0.0697,0.0459,0.0591,0.022,0.0171,0.0097,-0.014,-0.0144,-0.024,-0.0237,-0.0234,-0.0184,0,0,0,0,0]}]]